User: anonymous   Login
Location: Mercogliano
(40.9167°N, 14.7333°E)
Time: 14:39:36
(UTC+00:00)
Language:

ISS - Orbit

View from above orbital plane
View from above orbital plane
View from above satellite
View from above satellite

Ground track
Ground track

The orbit data is extracted from the following two-line orbital elements,

1 25544U 98067A   20334.54304296  .00016717  00000-0  10270-3 0  9024
2 25544  51.6439 250.2869 0001947  84.3370 275.8003 15.49088145 17646
Epoch (UTC): 29 November 2020 13:01:58
Eccentricity: 0.0001947
inclination: 51.6439°
perigee height: 418 km
apogee height: 421 km
right ascension of ascending node: 250.2869°
argument of perigee: 84.3370°
revolutions per day: 15.49088145
mean anomaly at epoch: 275.8003°
orbit number at epoch: 1764

The dashed part of the orbit path shows where the satellite is in the earth's shadow,  

DLR